Location: Lombard
(41.8800°N, 88.0080°W)
Time: 04:38:01
(UTC-05:00)

Vanguard 2 Rocket - Pass Details

Date: 25 February 2024
Orbit: 555 x 3307 km, 32.9° (Epoch: 12 April)

Event Time Altitude Azimuth Distance (km) Brightness Sun altitude
Rises 20:35:30 0° 277° (W) 6,338 12.2 -33.5°
Reaches altitude 10° 20:40:14 10° 267° (W) 5,653 11.6 -34.4°
Maximum altitude 20:54:09 28° 217° (SW) 4,825 10.5 -36.8°
Enters shadow 21:06:06 16° 175° (S) 5,693 10.6 -38.8°
Drops below altitude 10° 21:09:16 10° 168° (SSE) 6,093 - -39.3°
Sets 21:14:48 0° 157° (SSE) 6,886 - -40.2°
